Time,TemperatureF,DewpointF,PressureIn,WindDirection,WindDirectionDegrees,WindSpeedMPH,WindSpeedGustMPH,Humidity,HourlyPrecipIn,Conditions,Clouds,dailyrainin,SoftwareType,DateUTC
2013-08-06 00:03:00,70.6,68.2,29.78,SSW,196,0.0,0.0,92,0.00,,,0.11,Wunderground v.1.15,2013-08-06 05:03:00,
2013-08-06 00:08:00,70.7,68.6,29.78,SSW,196,0.0,0.0,93,0.00,,,0.00,Wunderground v.1.15,2013-08-06 05:08:00,
2013-08-06 00:14:00,70.7,68.6,29.78,SSW,196,0.0,0.0,93,0.00,,,0.00,Wunderground v.1.15,2013-08-06 05:14:00,
2013-08-06 00:19:00,70.8,68.7,29.78,SSW,196,0.0,0.0,93,0.00,,,0.00,Wunderground v.1.15,2013-08-06 05:19:00,
2013-08-06 00:24:00,70.7,68.6,29.78,SSW,196,0.0,0.0,93,0.00,,,0.00,Wunderground v.1.15,2013-08-06 05:24:00,
2013-08-06 00:29:00,70.7,68.6,29.79,SSW,196,0.0,0.0,93,0.00,,,0.00,Wunderground v.1.15,2013-08-06 05:29:00,
2013-08-06 00:34:00,70.6,68.2,29.79,SSW,196,0.0,0.0,92,0.00,,,0.00,Wunderground v.1.15,2013-08-06 05:34:00,
2013-08-06 00:40:00,70.3,67.9,29.80,SSW,196,0.0,0.0,92,0.00,,,0.00,Wunderground v.1.15,2013-08-06 05:40:00,
2013-08-06 00:45:00,70.0,67.6,29.80,SSW,196,0.0,0.0,92,0.00,,,0.00,Wunderground v.1.15,2013-08-06 05:45:00,
2013-08-06 00:50:00,70.1,68.0,29.80,SSW,196,0.0,0.0,93,0.00,,,0.00,Wunderground v.1.15,2013-08-06 05:50:00,
2013-08-06 00:55:00,70.0,67.9,29.80,SSW,196,0.0,0.0,93,0.00,,,0.00,Wunderground v.1.15,2013-08-06 05:55:00,
2013-08-06 01:00:00,70.0,67.9,29.80,SSW,196,0.0,0.0,93,0.00,,,0.00,Wunderground v.1.15,2013-08-06 06:00:00,
2013-08-06 01:06:00,70.1,68.0,29.81,SSW,196,0.0,0.0,93,0.00,,,0.00,Wunderground v.1.15,2013-08-06 06:06:00,
2013-08-06 01:11:00,70.1,68.0,29.81,SSW,196,0.0,0.0,93,0.00,,,0.00,Wunderground v.1.15,2013-08-06 06:11:00,
2013-08-06 01:16:00,69.9,67.8,29.80,SSW,196,0.0,0.0,93,0.00,,,0.00,Wunderground v.1.15,2013-08-06 06:16:00,
2013-08-06 01:21:00,69.5,67.1,29.80,SSW,196,0.0,0.0,92,0.00,,,0.00,Wunderground v.1.15,2013-08-06 06:21:00,
2013-08-06 01:26:00,69.2,66.8,29.80,SSW,196,0.0,0.0,92,0.00,,,0.00,Wunderground v.1.15,2013-08-06 06:26:00,
2013-08-06 01:32:00,69.1,67.0,29.79,SSW,196,0.0,0.0,93,0.00,,,0.00,Wunderground v.1.15,2013-08-06 06:32:00,
2013-08-06 01:37:00,69.0,66.9,29.78,SSW,196,0.0,0.0,93,0.00,,,0.00,Wunderground v.1.15,2013-08-06 06:37:00,
2013-08-06 01:42:00,69.0,66.9,29.79,SSW,196,0.0,0.0,93,0.00,,,0.00,Wunderground v.1.15,2013-08-06 06:42:00,
2013-08-06 01:47:00,68.8,66.7,29.80,SSW,196,0.0,0.0,93,0.00,,,0.00,Wunderground v.1.15,2013-08-06 06:47:00,
2013-08-06 01:52:00,68.7,66.6,29.80,SSW,196,0.0,0.0,93,0.00,,,0.00,Wunderground v.1.15,2013-08-06 06:52:00,
2013-08-06 01:58:00,68.6,66.5,29.80,SSW,196,0.0,0.0,93,0.00,,,0.00,Wunderground v.1.15,2013-08-06 06:58:00,
2013-08-06 02:03:00,68.2,65.8,29.79,SSW,196,0.0,0.0,92,0.00,,,0.00,Wunderground v.1.15,2013-08-06 07:03:00,
2013-08-06 02:08:00,67.9,65.8,29.79,SSW,196,0.0,0.0,93,0.00,,,0.00,Wunderground v.1.15,2013-08-06 07:08:00,
2013-08-06 02:13:00,67.9,65.8,29.79,SSW,196,0.0,0.0,93,0.00,,,0.00,Wunderground v.1.15,2013-08-06 07:13:00,
2013-08-06 02:18:00,67.9,65.8,29.78,SSW,196,0.0,0.0,93,0.00,,,0.00,Wunderground v.1.15,2013-08-06 07:18:00,
2013-08-06 02:23:00,67.6,65.5,29.78,SSW,196,0.0,0.0,93,0.00,,,0.00,Wunderground v.1.15,2013-08-06 07:23:00,
2013-08-06 02:28:00,67.4,65.6,29.78,SSW,196,0.0,0.0,94,0.00,,,0.00,Wunderground v.1.15,2013-08-06 07:28:00,
2013-08-06 02:33:00,67.4,65.6,29.79,SSW,196,0.0,0.0,94,0.00,,,0.00,Wunderground v.1.15,2013-08-06 07:33:00,
2013-08-06 02:38:00,67.3,65.5,29.78,SSW,196,0.0,0.0,94,0.00,,,0.00,Wunderground v.1.15,2013-08-06 07:38:00,
2013-08-06 02:43:00,67.3,65.5,29.78,SSW,196,0.0,0.0,94,0.00,,,0.00,Wunderground v.1.15,2013-08-06 07:43:00,
2013-08-06 02:48:00,67.1,65.0,29.78,SSW,196,0.0,0.0,93,0.00,,,0.00,Wunderground v.1.15,2013-08-06 07:48:00,
2013-08-06 02:53:00,67.1,65.3,29.78,SSW,196,0.0,0.0,94,0.00,,,0.00,Wunderground v.1.15,2013-08-06 07:53:00,
2013-08-06 02:58:00,67.1,65.3,29.77,SSW,196,0.0,0.0,94,0.00,,,0.00,Wunderground v.1.15,2013-08-06 07:58:00,
2013-08-06 03:03:00,67.3,65.5,29.77,SSW,196,0.0,0.0,94,0.00,,,0.00,Wunderground v.1.15,2013-08-06 08:03:00,
2013-08-06 03:08:00,67.3,65.5,29.77,SSW,196,0.0,0.0,94,0.00,,,0.00,Wunderground v.1.15,2013-08-06 08:08:00,
2013-08-06 03:14:00,67.1,65.0,29.77,SSW,196,0.0,0.0,93,0.00,,,0.00,Wunderground v.1.15,2013-08-06 08:14:00,
2013-08-06 03:19:00,66.8,65.0,29.77,SSW,196,0.0,0.0,94,0.00,,,0.00,Wunderground v.1.15,2013-08-06 08:19:00,
2013-08-06 03:24:00,66.7,64.9,29.77,SSW,196,0.0,0.0,94,0.00,,,0.00,Wunderground v.1.15,2013-08-06 08:24:00,
2013-08-06 03:29:00,66.7,64.9,29.76,SSW,196,0.0,0.0,94,0.00,,,0.00,Wunderground v.1.15,2013-08-06 08:29:00,
2013-08-06 03:34:00,66.6,64.8,29.76,SSW,196,0.0,0.0,94,0.00,,,0.00,Wunderground v.1.15,2013-08-06 08:34:00,
2013-08-06 03:39:00,66.5,64.7,29.76,SSW,196,0.0,0.0,94,0.00,,,0.00,Wunderground v.1.15,2013-08-06 08:39:00,
2013-08-06 03:44:00,66.0,63.9,29.75,SSW,196,0.0,0.0,93,0.00,,,0.00,Wunderground v.1.15,2013-08-06 08:44:00,
2013-08-06 03:49:00,65.7,63.9,29.76,SSW,196,0.0,0.0,94,0.00,,,0.00,Wunderground v.1.15,2013-08-06 08:49:00,
2013-08-06 03:54:00,65.8,64.0,29.75,SSW,196,0.0,0.0,94,0.00,,,0.00,Wunderground v.1.15,2013-08-06 08:54:00,
2013-08-06 03:59:00,66.0,64.2,29.76,SSW,196,0.0,0.0,94,0.00,,,0.00,Wunderground v.1.15,2013-08-06 08:59:00,
2013-08-06 04:04:00,66.1,64.3,29.76,SSW,196,0.0,0.0,94,0.00,,,0.00,Wunderground v.1.15,2013-08-06 09:04:00,
2013-08-06 04:09:00,66.3,64.8,29.76,SSW,196,0.0,0.0,95,0.00,,,0.00,Wunderground v.1.15,2013-08-06 09:09:00,
2013-08-06 04:14:00,66.4,64.6,29.76,SSW,196,0.0,0.0,94,0.00,,,0.00,Wunderground v.1.15,2013-08-06 09:14:00,
2013-08-06 04:19:00,66.1,64.3,29.76,SSW,196,0.0,0.0,94,0.00,,,0.00,Wunderground v.1.15,2013-08-06 09:19:00,
2013-08-06 04:24:00,65.7,63.9,29.76,SSW,196,0.0,0.0,94,0.00,,,0.00,Wunderground v.1.15,2013-08-06 09:24:00,
2013-08-06 04:29:00,65.5,63.7,29.76,SSW,196,0.0,0.0,94,0.00,,,0.00,Wunderground v.1.15,2013-08-06 09:29:00,
2013-08-06 04:34:00,65.3,63.5,29.75,SSW,196,0.0,0.0,94,0.00,,,0.00,Wunderground v.1.15,2013-08-06 09:34:00,
2013-08-06 04:39:00,65.2,63.4,29.75,SSW,196,0.0,0.0,94,0.00,,,0.00,Wunderground v.1.15,2013-08-06 09:39:00,
2013-08-06 04:44:00,65.4,63.6,29.75,SSW,196,0.0,0.0,94,0.00,,,0.00,Wunderground v.1.15,2013-08-06 09:44:00,
2013-08-06 04:49:00,65.4,63.6,29.76,SSW,196,0.0,0.0,94,0.00,,,0.00,Wunderground v.1.15,2013-08-06 09:49:00,
2013-08-06 04:54:00,65.2,63.4,29.75,SSW,196,0.0,0.0,94,0.00,,,0.00,Wunderground v.1.15,2013-08-06 09:54:00,
2013-08-06 04:59:00,64.9,63.1,29.76,SSW,196,0.0,0.0,94,0.00,,,0.00,Wunderground v.1.15,2013-08-06 09:59:00,
2013-08-06 05:04:00,64.8,63.0,29.75,SSW,196,0.0,0.0,94,0.00,,,0.00,Wunderground v.1.15,2013-08-06 10:04:00,
2013-08-06 05:09:00,64.9,63.4,29.75,SSW,196,0.0,0.0,95,0.00,,,0.00,Wunderground v.1.15,2013-08-06 10:09:00,
2013-08-06 05:14:00,65.0,63.5,29.75,SSW,196,0.0,0.0,95,0.00,,,0.00,Wunderground v.1.15,2013-08-06 10:14:00,
2013-08-06 05:19:00,64.8,63.0,29.75,SSW,196,0.0,0.0,94,0.00,,,0.00,Wunderground v.1.15,2013-08-06 10:19:00,
2013-08-06 05:24:00,64.8,63.3,29.76,SSW,196,0.0,0.0,95,0.00,,,0.00,Wunderground v.1.15,2013-08-06 10:24:00,
2013-08-06 05:29:00,64.7,62.9,29.76,SSW,196,0.0,0.0,94,0.00,,,0.00,Wunderground v.1.15,2013-08-06 10:29:00,
2013-08-06 05:34:00,64.3,62.5,29.76,SSW,196,0.0,0.0,94,0.00,,,0.00,Wunderground v.1.15,2013-08-06 10:34:00,
2013-08-06 05:39:00,64.0,62.2,29.76,SSW,196,0.0,0.0,94,0.00,,,0.00,Wunderground v.1.15,2013-08-06 10:39:00,
2013-08-06 05:44:00,63.9,62.1,29.76,SSW,196,0.0,0.0,94,0.00,,,0.00,Wunderground v.1.15,2013-08-06 10:44:00,
2013-08-06 05:49:00,63.5,61.7,29.76,SSW,196,0.0,0.0,94,0.00,,,0.00,Wunderground v.1.15,2013-08-06 10:49:00,
2013-08-06 05:54:00,63.2,61.4,29.76,SSW,196,0.0,0.0,94,0.00,,,0.00,Wunderground v.1.15,2013-08-06 10:54:00,
2013-08-06 05:59:00,63.1,61.3,29.76,SSW,196,0.0,0.0,94,0.00,,,0.00,Wunderground v.1.15,2013-08-06 10:59:00,
2013-08-06 06:04:00,63.3,61.8,29.76,SSW,196,0.0,0.0,95,0.00,,,0.00,Wunderground v.1.15,2013-08-06 11:04:00,
2013-08-06 06:09:00,63.4,61.9,29.76,SSW,196,0.0,0.0,95,0.00,,,0.00,Wunderground v.1.15,2013-08-06 11:09:00,
2013-08-06 06:14:00,63.5,62.0,29.76,SSW,196,0.0,0.0,95,0.00,,,0.00,Wunderground v.1.15,2013-08-06 11:14:00,
2013-08-06 06:19:00,63.9,62.4,29.76,SSW,196,0.0,0.0,95,0.00,,,0.00,Wunderground v.1.15,2013-08-06 11:19:00,
2013-08-06 06:24:00,64.0,62.5,29.77,SSW,196,0.0,0.0,95,0.00,,,0.00,Wunderground v.1.15,2013-08-06 11:24:00,
2013-08-06 06:29:00,64.1,62.6,29.77,SSW,196,0.0,0.0,95,0.00,,,0.00,Wunderground v.1.15,2013-08-06 11:29:00,
2013-08-06 06:35:00,64.3,62.8,29.76,SSW,196,0.0,0.0,95,0.00,,,0.00,Wunderground v.1.15,2013-08-06 11:35:00,
2013-08-06 06:40:00,64.5,63.0,29.76,SSW,196,0.0,0.0,95,0.00,,,0.00,Wunderground v.1.15,2013-08-06 11:40:00,
2013-08-06 06:45:00,64.7,63.2,29.76,SSW,196,0.0,0.0,95,0.00,,,0.00,Wunderground v.1.15,2013-08-06 11:45:00,
2013-08-06 06:50:00,64.9,63.4,29.76,SSW,196,0.0,0.0,95,0.00,,,0.00,Wunderground v.1.15,2013-08-06 11:50:00,
2013-08-06 06:55:00,64.8,63.3,29.76,SSW,196,0.0,0.0,95,0.00,,,0.00,Wunderground v.1.15,2013-08-06 11:55:00,
2013-08-06 07:00:00,64.7,63.2,29.76,SSW,196,0.0,0.0,95,0.00,,,0.00,Wunderground v.1.15,2013-08-06 12:00:00,
2013-08-06 07:05:00,64.8,63.3,29.76,SSW,196,0.0,0.0,95,0.00,,,0.00,Wunderground v.1.15,2013-08-06 12:05:00,
2013-08-06 07:10:00,65.2,63.7,29.76,SSW,196,0.0,0.0,95,0.00,,,0.00,Wunderground v.1.15,2013-08-06 12:10:00,
2013-08-06 07:15:00,65.8,64.6,29.76,SSW,196,0.0,0.0,96,0.00,,,0.00,Wunderground v.1.15,2013-08-06 12:15:00,
2013-08-06 07:20:00,66.1,64.6,29.77,SSW,196,0.0,0.0,95,0.00,,,0.00,Wunderground v.1.15,2013-08-06 12:20:00,
2013-08-06 07:25:00,66.4,65.2,29.78,SSW,196,0.0,0.0,96,0.00,,,0.00,Wunderground v.1.15,2013-08-06 12:25:00,
2013-08-06 07:30:00,66.7,65.2,29.78,SSW,196,0.0,0.0,95,0.00,,,0.00,Wunderground v.1.15,2013-08-06 12:30:00,
2013-08-06 07:35:00,66.9,65.4,29.79,SSW,196,0.0,0.0,95,0.00,,,0.00,Wunderground v.1.15,2013-08-06 12:35:00,
2013-08-06 07:40:00,67.3,65.8,29.79,SSW,196,0.0,0.0,95,0.00,,,0.00,Wunderground v.1.15,2013-08-06 12:40:00,
2013-08-06 07:45:00,67.9,66.7,29.79,SSW,192,0.0,0.0,96,0.00,,,0.00,Wunderground v.1.15,2013-08-06 12:45:00,
2013-08-06 07:50:00,68.1,66.6,29.80,South,182,0.0,0.0,95,0.00,,,0.00,Wunderground v.1.15,2013-08-06 12:50:00,
2013-08-06 07:55:00,68.2,66.7,29.80,South,182,0.0,0.0,95,0.00,,,0.00,Wunderground v.1.15,2013-08-06 12:55:00,
2013-08-06 08:00:00,68.3,66.8,29.80,South,182,0.0,0.0,95,0.00,,,0.00,Wunderground v.1.15,2013-08-06 13:00:00,
2013-08-06 08:05:00,68.7,67.2,29.80,South,182,0.0,0.0,95,0.00,,,0.00,Wunderground v.1.15,2013-08-06 13:05:00,
2013-08-06 08:10:00,69.0,67.8,29.80,ESE,105,0.0,0.0,96,0.00,,,0.00,Wunderground v.1.15,2013-08-06 13:10:00,
2013-08-06 08:15:00,69.2,67.7,29.80,ESE,105,0.0,0.0,95,0.00,,,0.00,Wunderground v.1.15,2013-08-06 13:15:00,
2013-08-06 08:20:00,69.5,68.0,29.80,ESE,105,0.0,0.0,95,0.00,,,0.00,Wunderground v.1.15,2013-08-06 13:20:00,
2013-08-06 08:25:00,70.1,68.9,29.81,ESE,105,0.0,0.0,96,0.00,,,0.00,Wunderground v.1.15,2013-08-06 13:25:00,
2013-08-06 08:30:00,70.6,69.4,29.81,ESE,105,0.0,0.0,96,0.00,,,0.00,Wunderground v.1.15,2013-08-06 13:30:00,
2013-08-06 08:35:00,71.2,70.0,29.81,ESE,105,0.0,0.0,96,0.00,,,0.00,Wunderground v.1.15,2013-08-06 13:35:00,
2013-08-06 08:41:00,71.4,69.9,29.81,ESE,105,0.0,0.0,95,0.00,,,0.00,Wunderground v.1.15,2013-08-06 13:41:00,
2013-08-06 08:46:00,71.9,70.4,29.80,ESE,105,0.0,0.0,95,0.00,,,0.00,Wunderground v.1.15,2013-08-06 13:46:00,
2013-08-06 08:51:00,72.1,70.6,29.80,ESE,105,0.0,0.0,95,0.00,,,0.00,Wunderground v.1.15,2013-08-06 13:51:00,
2013-08-06 08:56:00,72.5,70.7,29.80,ESE,105,0.0,0.0,94,0.00,,,0.00,Wunderground v.1.15,2013-08-06 13:56:00,
2013-08-06 09:01:00,73.0,71.2,29.81,ESE,105,0.0,0.0,94,0.00,,,0.00,Wunderground v.1.15,2013-08-06 14:01:00,
2013-08-06 09:06:00,73.4,71.6,29.81,ESE,109,0.0,0.0,94,0.00,,,0.00,Wunderground v.1.15,2013-08-06 14:06:00,
2013-08-06 09:11:00,73.5,71.4,29.81,ESE,109,0.0,0.0,93,0.00,,,0.00,Wunderground v.1.15,2013-08-06 14:11:00,
2013-08-06 09:16:00,73.7,71.2,29.82,ESE,109,0.0,0.0,92,0.00,,,0.00,Wunderground v.1.15,2013-08-06 14:16:00,
2013-08-06 09:21:00,73.9,71.4,29.82,ESE,109,0.0,0.0,92,0.00,,,0.00,Wunderground v.1.15,2013-08-06 14:21:00,
2013-08-06 09:26:00,74.3,71.8,29.82,ESE,110,0.0,0.0,92,0.00,,,0.00,Wunderground v.1.15,2013-08-06 14:26:00,
2013-08-06 09:31:00,74.9,72.1,29.82,ESE,110,0.0,0.0,91,0.00,,,0.00,Wunderground v.1.15,2013-08-06 14:31:00,
2013-08-06 09:36:00,75.7,72.6,29.82,ESE,113,0.0,0.0,90,0.00,,,0.00,Wunderground v.1.15,2013-08-06 14:36:00,
2013-08-06 09:41:00,76.3,72.8,29.82,ESE,115,0.0,0.0,89,0.00,,,0.00,Wunderground v.1.15,2013-08-06 14:41:00,
2013-08-06 09:46:00,76.8,73.0,29.82,WSW,238,0.0,0.0,88,0.00,,,0.00,Wunderground v.1.15,2013-08-06 14:46:00,
2013-08-06 09:51:00,77.3,73.1,29.81,WSW,237,0.0,0.0,87,0.00,,,0.00,Wunderground v.1.15,2013-08-06 14:51:00,
2013-08-06 09:56:00,77.5,72.6,29.82,WSW,238,3.0,5.0,85,0.00,,,0.00,Wunderground v.1.15,2013-08-06 14:56:00,
2013-08-06 10:01:00,77.8,72.9,29.81,WSW,238,0.0,3.0,85,0.00,,,0.00,Wunderground v.1.15,2013-08-06 15:01:00,
2013-08-06 10:06:00,78.2,73.3,29.81,WSW,252,0.0,9.0,85,0.00,,,0.00,Wunderground v.1.15,2013-08-06 15:06:00,
2013-08-06 10:11:00,78.6,73.4,29.81,WSW,253,0.0,5.0,84,0.00,,,0.00,Wunderground v.1.15,2013-08-06 15:11:00,
2013-08-06 10:16:00,78.7,73.5,29.81,WSW,253,3.0,5.0,84,0.00,,,0.00,Wunderground v.1.15,2013-08-06 15:16:00,
2013-08-06 10:21:00,78.8,73.2,29.81,WSW,253,0.0,3.0,83,0.00,,,0.00,Wunderground v.1.15,2013-08-06 15:21:00,
2013-08-06 10:27:00,79.0,73.7,29.80,WSW,253,0.0,3.0,84,0.00,,,0.00,Wunderground v.1.15,2013-08-06 15:27:00,
2013-08-06 10:32:00,79.1,73.5,29.80,WSW,253,0.0,0.0,83,0.00,,,0.00,Wunderground v.1.15,2013-08-06 15:32:00,
2013-08-06 10:37:00,79.1,72.8,29.80,WSW,256,0.0,6.0,81,0.00,,,0.00,Wunderground v.1.15,2013-08-06 15:37:00,
2013-08-06 10:42:00,79.3,73.0,29.80,West,272,3.0,3.0,81,0.00,,,0.00,Wunderground v.1.15,2013-08-06 15:42:00,
2013-08-06 10:47:00,79.4,72.7,29.80,West,272,0.0,5.0,80,0.00,,,0.00,Wunderground v.1.15,2013-08-06 15:47:00,
2013-08-06 10:52:00,79.6,72.9,29.79,West,271,0.0,1.0,80,0.00,,,0.00,Wunderground v.1.15,2013-08-06 15:52:00,
2013-08-06 10:57:00,80.0,72.5,29.80,West,273,0.0,7.0,78,0.00,,,0.00,Wunderground v.1.15,2013-08-06 15:57:00,
2013-08-06 11:02:00,80.3,72.4,29.80,West,269,2.0,5.0,77,0.00,,,0.00,Wunderground v.1.15,2013-08-06 16:02:00,
2013-08-06 11:07:00,80.7,72.4,29.79,West,266,1.0,9.0,76,0.00,,,0.00,Wunderground v.1.15,2013-08-06 16:07:00,
2013-08-06 11:12:00,80.9,72.6,29.79,West,267,5.0,6.0,76,0.00,,,0.00,Wunderground v.1.15,2013-08-06 16:12:00,
2013-08-06 11:17:00,81.1,72.4,29.79,West,264,2.0,7.0,75,0.00,,,0.00,Wunderground v.1.15,2013-08-06 16:17:00,
2013-08-06 11:22:00,81.0,71.5,29.80,West,269,7.0,7.0,73,0.00,,,0.00,Wunderground v.1.15,2013-08-06 16:22:00,
2013-08-06 11:27:00,80.9,71.8,29.79,West,269,6.0,7.0,74,0.00,,,0.00,Wunderground v.1.15,2013-08-06 16:27:00,
2013-08-06 11:32:00,80.8,71.7,29.79,West,268,0.0,8.0,74,0.00,,,0.00,Wunderground v.1.15,2013-08-06 16:32:00,
2013-08-06 11:37:00,81.2,72.5,29.79,West,263,1.0,8.0,75,0.00,,,0.00,Wunderground v.1.15,2013-08-06 16:37:00,
2013-08-06 11:42:00,82.0,72.9,29.79,West,269,3.0,7.0,74,0.00,,,0.00,Wunderground v.1.15,2013-08-06 16:42:00,
2013-08-06 11:47:00,81.9,71.6,29.78,West,269,0.0,7.0,71,0.00,,,0.00,Wunderground v.1.15,2013-08-06 16:47:00,
2013-08-06 11:52:00,81.5,70.8,29.78,West,269,0.0,2.0,70,0.00,,,0.00,Wunderground v.1.15,2013-08-06 16:52:00,
2013-08-06 11:57:00,81.5,71.6,29.78,West,268,5.0,9.0,72,0.00,,,0.00,Wunderground v.1.15,2013-08-06 16:57:00,
2013-08-06 12:02:00,82.0,72.9,29.78,West,261,0.0,5.0,74,0.00,,,0.00,Wunderground v.1.15,2013-08-06 17:02:00,
2013-08-06 12:07:00,82.3,72.0,29.77,WSW,250,0.0,6.0,71,0.00,,,0.00,Wunderground v.1.15,2013-08-06 17:07:00,
2013-08-06 12:12:00,82.7,71.9,29.78,WSW,246,0.0,7.0,70,0.00,,,0.00,Wunderground v.1.15,2013-08-06 17:12:00,
2013-08-06 12:17:00,83.3,72.1,29.77,SW,229,0.0,7.0,69,0.00,,,0.00,Wunderground v.1.15,2013-08-06 17:17:00,
2013-08-06 12:23:00,83.4,71.3,29.77,WSW,246,0.0,9.0,67,0.00,,,0.00,Wunderground v.1.15,2013-08-06 17:23:00,
2013-08-06 12:27:00,83.4,71.7,29.77,WSW,250,0.0,9.0,68,0.00,,,0.00,Wunderground v.1.15,2013-08-06 17:27:00,
2013-08-06 12:32:00,83.5,71.8,29.77,WSW,254,0.0,3.0,68,0.00,,,0.00,Wunderground v.1.15,2013-08-06 17:32:00,
2013-08-06 12:37:00,83.7,72.0,29.76,WSW,254,0.0,3.0,68,0.00,,,0.00,Wunderground v.1.15,2013-08-06 17:37:00,
2013-08-06 12:42:00,84.3,72.1,29.76,WSW,254,0.0,0.0,67,0.00,,,0.00,Wunderground v.1.15,2013-08-06 17:42:00,
2013-08-06 12:47:00,84.9,71.8,29.76,WSW,254,0.0,2.0,65,0.00,,,0.00,Wunderground v.1.15,2013-08-06 17:47:00,
2013-08-06 12:52:00,85.0,72.4,29.75,WSW,254,3.0,5.0,66,0.00,,,0.00,Wunderground v.1.15,2013-08-06 17:52:00,
2013-08-06 12:57:00,84.8,71.3,29.75,SSW,198,0.0,8.0,64,0.00,,,0.00,Wunderground v.1.15,2013-08-06 17:57:00,
2013-08-06 13:02:00,85.0,72.4,29.74,SSW,192,0.0,4.0,66,0.00,,,0.00,Wunderground v.1.15,2013-08-06 18:02:00,
2013-08-06 13:07:00,84.8,71.7,29.74,South,190,0.0,5.0,65,0.00,,,0.00,Wunderground v.1.15,2013-08-06 18:07:00,
2013-08-06 13:12:00,84.9,71.4,29.73,South,190,4.0,4.0,64,0.00,,,0.00,Wunderground v.1.15,2013-08-06 18:12:00,
2013-08-06 13:17:00,84.5,71.0,29.74,South,190,3.0,11.0,64,0.00,,,0.00,Wunderground v.1.15,2013-08-06 18:17:00,
2013-08-06 13:22:00,84.5,71.4,29.74,SSW,192,3.0,7.0,65,0.00,,,0.00,Wunderground v.1.15,2013-08-06 18:22:00,
2013-08-06 13:27:00,84.6,70.1,29.75,SSW,193,0.0,7.0,62,0.00,,,0.00,Wunderground v.1.15,2013-08-06 18:27:00,
2013-08-06 13:32:00,84.6,71.5,29.74,SSW,194,0.0,6.0,65,0.00,,,0.00,Wunderground v.1.15,2013-08-06 18:32:00,
2013-08-06 13:37:00,85.2,71.2,29.74,SSW,194,7.0,8.0,63,0.00,,,0.00,Wunderground v.1.15,2013-08-06 18:37:00,
2013-08-06 13:42:00,85.4,69.9,29.73,SSW,194,6.0,6.0,60,0.00,,,0.00,Wunderground v.1.15,2013-08-06 18:42:00,
2013-08-06 13:47:00,85.4,69.9,29.73,South,181,0.0,10.0,60,0.00,,,0.00,Wunderground v.1.15,2013-08-06 18:47:00,
2013-08-06 13:52:00,85.6,71.6,29.73,South,178,2.0,6.0,63,0.00,,,0.00,Wunderground v.1.15,2013-08-06 18:52:00,
2013-08-06 13:57:00,85.9,72.8,29.73,South,181,0.0,6.0,65,0.00,,,0.00,Wunderground v.1.15,2013-08-06 18:57:00,
2013-08-06 14:02:00,86.4,72.3,29.73,South,188,4.0,9.0,63,0.00,,,0.00,Wunderground v.1.15,2013-08-06 19:02:00,
2013-08-06 14:07:00,85.8,70.8,29.73,South,191,0.0,15.0,61,0.00,,,0.00,Wunderground v.1.15,2013-08-06 19:07:00,
2013-08-06 14:12:00,85.4,71.8,29.72,SSW,192,10.0,13.0,64,0.00,,,0.00,Wunderground v.1.15,2013-08-06 19:12:00,
2013-08-06 14:17:00,85.4,71.8,29.72,SSW,192,0.0,13.0,64,0.00,,,0.00,Wunderground v.1.15,2013-08-06 19:17:00,
2013-08-06 14:22:00,86.0,72.4,29.72,SSW,192,7.0,14.0,64,0.00,,,0.00,Wunderground v.1.15,2013-08-06 19:22:00,
2013-08-06 14:27:00,86.1,72.5,29.72,South,185,3.0,14.0,64,0.00,,,0.00,Wunderground v.1.15,2013-08-06 19:27:00,
2013-08-06 14:33:00,86.1,72.0,29.72,South,188,0.0,14.0,63,0.00,,,0.00,Wunderground v.1.15,2013-08-06 19:33:00,
2013-08-06 14:38:00,85.9,72.8,29.72,South,188,11.0,14.0,65,0.00,,,0.00,Wunderground v.1.15,2013-08-06 19:38:00,
2013-08-06 14:43:00,85.6,72.5,29.72,South,180,2.0,12.0,65,0.00,,,0.00,Wunderground v.1.15,2013-08-06 19:43:00,
2013-08-06 14:48:00,85.6,71.1,29.72,South,191,8.0,14.0,62,0.00,,,0.00,Wunderground v.1.15,2013-08-06 19:48:00,
2013-08-06 14:53:00,86.0,72.9,29.72,SSW,195,5.0,9.0,65,0.00,,,0.00,Wunderground v.1.15,2013-08-06 19:53:00,
2013-08-06 14:58:00,86.1,71.1,29.73,South,171,7.0,11.0,61,0.00,,,0.00,Wunderground v.1.15,2013-08-06 19:58:00,
2013-08-06 15:03:00,85.9,70.9,29.72,SSW,194,6.0,10.0,61,0.00,,,0.00,Wunderground v.1.15,2013-08-06 20:03:00,
2013-08-06 15:08:00,86.2,71.2,29.73,South,189,7.0,10.0,61,0.00,,,0.00,Wunderground v.1.15,2013-08-06 20:08:00,
2013-08-06 15:13:00,86.4,71.4,29.73,SSW,200,0.0,6.0,61,0.00,,,0.00,Wunderground v.1.15,2013-08-06 20:13:00,
2013-08-06 15:18:00,86.4,71.8,29.73,SSW,200,1.0,6.0,62,0.00,,,0.00,Wunderground v.1.15,2013-08-06 20:18:00,
2013-08-06 15:23:00,86.6,70.6,29.74,SW,230,5.0,7.0,59,0.00,,,0.00,Wunderground v.1.15,2013-08-06 20:23:00,
2013-08-06 15:28:00,86.8,69.7,29.74,SW,232,0.0,7.0,57,0.00,,,0.00,Wunderground v.1.15,2013-08-06 20:28:00,
2013-08-06 15:32:00,87.0,70.9,29.73,SW,232,0.0,3.0,59,0.00,,,0.00,Wunderground v.1.15,2013-08-06 20:32:00,
2013-08-06 15:37:00,87.1,71.0,29.74,SW,232,0.0,5.0,59,0.00,,,0.00,Wunderground v.1.15,2013-08-06 20:37:00,
2013-08-06 15:42:00,86.8,72.2,29.74,SW,232,0.0,5.0,62,0.00,,,0.00,Wunderground v.1.15,2013-08-06 20:42:00,
2013-08-06 15:48:00,87.0,71.9,29.74,SW,219,1.0,7.0,61,0.00,,,0.00,Wunderground v.1.15,2013-08-06 20:48:00,
2013-08-06 15:53:00,87.3,72.2,29.74,SSW,212,5.0,5.0,61,0.00,,,0.00,Wunderground v.1.15,2013-08-06 20:53:00,
2013-08-06 15:58:00,87.2,72.1,29.74,SSW,213,0.0,6.0,61,0.00,,,0.00,Wunderground v.1.15,2013-08-06 20:58:00,
2013-08-06 16:03:00,87.3,72.7,29.74,SSW,211,1.0,6.0,62,0.00,,,0.00,Wunderground v.1.15,2013-08-06 21:03:00,
2013-08-06 16:08:00,87.3,70.7,29.73,SW,235,5.0,9.0,58,0.00,,,0.00,Wunderground v.1.15,2013-08-06 21:08:00,
2013-08-06 16:13:00,87.3,71.7,29.74,SW,235,1.0,5.0,60,0.00,,,0.00,Wunderground v.1.15,2013-08-06 21:13:00,
2013-08-06 16:18:00,87.5,72.4,29.74,WSW,237,3.0,6.0,61,0.00,,,0.00,Wunderground v.1.15,2013-08-06 21:18:00,
2013-08-06 16:23:00,87.4,72.3,29.74,WSW,237,1.0,6.0,61,0.00,,,0.00,Wunderground v.1.15,2013-08-06 21:23:00,
2013-08-06 16:28:00,87.5,71.9,29.74,SSW,193,4.0,7.0,60,0.00,,,0.00,Wunderground v.1.15,2013-08-06 21:28:00,
2013-08-06 16:33:00,87.8,72.7,29.74,WSW,258,0.0,7.0,61,0.00,,,0.00,Wunderground v.1.15,2013-08-06 21:33:00,
2013-08-06 16:38:00,87.8,73.2,29.74,SSW,192,0.0,9.0,62,0.00,,,0.00,Wunderground v.1.15,2013-08-06 21:38:00,
2013-08-06 16:43:00,88.0,71.9,29.74,South,189,3.0,6.0,59,0.00,,,0.00,Wunderground v.1.15,2013-08-06 21:43:00,
2013-08-06 16:48:00,87.7,72.6,29.74,South,190,2.0,6.0,61,0.00,,,0.00,Wunderground v.1.15,2013-08-06 21:48:00,
2013-08-06 16:53:00,87.1,73.0,29.74,South,190,0.0,3.0,63,0.00,,,0.00,Wunderground v.1.15,2013-08-06 21:53:00,
2013-08-06 16:58:00,87.1,73.0,29.74,South,190,0.0,3.0,63,0.00,,,0.00,Wunderground v.1.15,2013-08-06 21:58:00,
2013-08-06 17:03:00,87.0,72.9,29.74,South,190,0.0,2.0,63,0.00,,,0.00,Wunderground v.1.15,2013-08-06 22:03:00,
2013-08-06 17:08:00,86.9,73.7,29.74,South,190,0.0,2.0,65,0.00,,,0.00,Wunderground v.1.15,2013-08-06 22:08:00,
2013-08-06 17:13:00,86.8,73.2,29.74,South,190,0.0,0.0,64,0.00,,,0.00,Wunderground v.1.15,2013-08-06 22:13:00,
2013-08-06 17:18:00,86.6,71.5,29.74,SSW,192,0.0,0.0,61,0.00,,,0.00,Wunderground v.1.15,2013-08-06 22:18:00,
2013-08-06 17:23:00,86.6,73.0,29.74,SW,216,0.0,7.0,64,0.00,,,0.00,Wunderground v.1.15,2013-08-06 22:23:00,
2013-08-06 17:28:00,86.6,72.5,29.74,SW,223,0.0,7.0,63,0.00,,,0.00,Wunderground v.1.15,2013-08-06 22:28:00,
2013-08-06 17:33:00,86.6,72.5,29.74,SW,223,0.0,0.0,63,0.00,,,0.00,Wunderground v.1.15,2013-08-06 22:33:00,
2013-08-06 17:38:00,86.6,72.5,29.75,SW,223,0.0,0.0,63,0.00,,,0.00,Wunderground v.1.15,2013-08-06 22:38:00,
2013-08-06 17:44:00,86.6,72.0,29.75,SW,223,0.0,0.0,62,0.00,,,0.00,Wunderground v.1.15,2013-08-06 22:44:00,
2013-08-06 17:48:00,86.7,72.1,29.74,SW,223,0.0,0.0,62,0.00,,,0.00,Wunderground v.1.15,2013-08-06 22:48:00,
2013-08-06 17:53:00,86.8,72.2,29.74,SW,223,0.0,0.0,62,0.00,,,0.00,Wunderground v.1.15,2013-08-06 22:53:00,
2013-08-06 17:59:00,86.9,72.3,29.74,SW,223,0.0,0.0,62,0.00,,,0.00,Wunderground v.1.15,2013-08-06 22:59:00,
2013-08-06 18:04:00,87.0,72.9,29.74,SW,223,0.0,0.0,63,0.00,,,0.00,Wunderground v.1.15,2013-08-06 23:04:00,
2013-08-06 18:09:00,87.0,72.9,29.74,SW,223,0.0,0.0,63,0.00,,,0.00,Wunderground v.1.15,2013-08-06 23:09:00,
2013-08-06 18:14:00,87.1,73.4,29.74,SW,223,0.0,0.0,64,0.00,,,0.00,Wunderground v.1.15,2013-08-06 23:14:00,
2013-08-06 18:19:00,87.2,73.1,29.73,SW,223,0.0,0.0,63,0.00,,,0.00,Wunderground v.1.15,2013-08-06 23:19:00,
2013-08-06 18:24:00,87.2,73.1,29.73,SW,223,0.0,0.0,63,0.00,,,0.00,Wunderground v.1.15,2013-08-06 23:24:00,
2013-08-06 18:29:00,87.1,73.9,29.73,SW,223,0.0,0.0,65,0.00,,,0.00,Wunderground v.1.15,2013-08-06 23:29:00,
2013-08-06 18:34:00,87.0,73.8,29.72,SW,223,0.0,0.0,65,0.00,,,0.00,Wunderground v.1.15,2013-08-06 23:34:00,
2013-08-06 18:39:00,86.5,74.2,29.73,SW,223,0.0,0.0,67,0.00,,,0.00,Wunderground v.1.15,2013-08-06 23:39:00,
2013-08-06 18:44:00,86.1,73.9,29.73,SW,223,0.0,0.0,67,0.00,,,0.00,Wunderground v.1.15,2013-08-06 23:44:00,
2013-08-06 18:49:00,85.8,74.4,29.72,SW,223,0.0,0.0,69,0.00,,,0.00,Wunderground v.1.15,2013-08-06 23:49:00,
2013-08-06 18:54:00,85.6,74.3,29.72,SW,223,0.0,0.0,69,0.00,,,0.00,Wunderground v.1.15,2013-08-06 23:54:00,
2013-08-06 18:59:00,85.4,73.6,29.72,SW,223,0.0,0.0,68,0.00,,,0.00,Wunderground v.1.15,2013-08-06 23:59:00,
2013-08-06 19:04:00,85.2,73.9,29.72,SW,223,0.0,0.0,69,0.00,,,0.00,Wunderground v.1.15,2013-08-07 00:04:00,
2013-08-06 19:09:00,85.2,73.9,29.72,SW,223,0.0,0.0,69,0.00,,,0.00,Wunderground v.1.15,2013-08-07 00:09:00,
2013-08-06 19:14:00,85.1,73.3,29.72,SW,223,0.0,0.0,68,0.00,,,0.00,Wunderground v.1.15,2013-08-07 00:14:00,
2013-08-06 19:19:00,85.0,74.1,29.71,SW,223,0.0,0.0,70,0.00,,,0.00,Wunderground v.1.15,2013-08-07 00:19:00,
2013-08-06 19:24:00,84.8,74.3,29.71,SW,223,0.0,0.0,71,0.00,,,0.00,Wunderground v.1.15,2013-08-07 00:24:00,
2013-08-06 19:30:00,84.7,74.7,29.71,SW,223,0.0,0.0,72,0.00,,,0.00,Wunderground v.1.15,2013-08-07 00:30:00,
2013-08-06 19:34:00,84.4,74.4,29.71,SW,223,0.0,0.0,72,0.00,,,0.00,Wunderground v.1.15,2013-08-07 00:34:00,
2013-08-06 19:39:00,83.9,73.9,29.71,SW,223,0.0,0.0,72,0.00,,,0.00,Wunderground v.1.15,2013-08-07 00:39:00,
2013-08-06 19:44:00,83.4,73.4,29.72,SW,223,0.0,0.0,72,0.00,,,0.00,Wunderground v.1.15,2013-08-07 00:44:00,
2013-08-06 19:50:00,82.9,73.4,29.72,SW,223,0.0,0.0,73,0.00,,,0.00,Wunderground v.1.15,2013-08-07 00:50:00,
2013-08-06 19:55:00,82.3,74.0,29.72,SW,223,0.0,0.0,76,0.00,,,0.00,Wunderground v.1.15,2013-08-07 00:55:00,
2013-08-06 20:00:00,81.8,73.9,29.71,SW,223,0.0,0.0,77,0.00,,,0.00,Wunderground v.1.15,2013-08-07 01:00:00,
2013-08-06 20:05:00,81.3,73.8,29.71,SW,223,0.0,0.0,78,0.00,,,0.00,Wunderground v.1.15,2013-08-07 01:05:00,
2013-08-06 20:10:00,80.9,73.4,29.71,SW,223,0.0,0.0,78,0.00,,,0.00,Wunderground v.1.15,2013-08-07 01:10:00,
2013-08-06 20:15:00,80.7,72.8,29.71,SW,223,0.0,0.0,77,0.00,,,0.00,Wunderground v.1.15,2013-08-07 01:15:00,
2013-08-06 20:20:00,80.5,72.6,29.71,SW,223,0.0,0.0,77,0.00,,,0.00,Wunderground v.1.15,2013-08-07 01:20:00,
2013-08-06 20:25:00,80.3,72.4,29.71,SW,223,0.0,0.0,77,0.00,,,0.00,Wunderground v.1.15,2013-08-07 01:25:00,
2013-08-06 20:30:00,80.1,72.2,29.72,SW,223,5.0,5.0,77,0.00,,,0.00,Wunderground v.1.15,2013-08-07 01:30:00,
2013-08-06 20:35:00,80.0,72.1,29.72,SW,223,0.0,6.0,77,0.00,,,0.00,Wunderground v.1.15,2013-08-07 01:35:00,
2013-08-06 20:40:00,79.6,72.1,29.72,SW,223,0.0,2.0,78,0.00,,,0.00,Wunderground v.1.15,2013-08-07 01:40:00,
2013-08-06 20:45:00,79.2,72.5,29.72,SW,223,0.0,2.0,80,0.00,,,0.00,Wunderground v.1.15,2013-08-07 01:45:00,
2013-08-06 20:50:00,78.7,72.4,29.73,SW,223,0.0,0.0,81,0.00,,,0.00,Wunderground v.1.15,2013-08-07 01:50:00,
2013-08-06 20:55:00,78.7,72.7,29.73,SSW,208,0.0,0.0,82,0.00,,,0.00,Wunderground v.1.15,2013-08-07 01:55:00,
2013-08-06 21:00:00,78.6,72.6,29.73,SSW,208,0.0,0.0,82,0.00,,,0.00,Wunderground v.1.15,2013-08-07 02:00:00,
2013-08-06 21:05:00,78.2,72.3,29.73,SSW,208,0.0,0.0,82,0.00,,,0.00,Wunderground v.1.15,2013-08-07 02:05:00,
2013-08-06 21:10:00,77.8,71.9,29.74,SSW,208,0.0,0.0,82,0.00,,,0.00,Wunderground v.1.15,2013-08-07 02:10:00,
2013-08-06 21:15:00,76.9,71.0,29.74,SSW,208,0.0,0.0,82,0.00,,,0.00,Wunderground v.1.15,2013-08-07 02:15:00,
2013-08-06 21:20:00,76.5,71.3,29.74,SSW,208,0.0,0.0,84,0.00,,,0.00,Wunderground v.1.15,2013-08-07 02:20:00,
2013-08-06 21:25:00,76.2,71.4,29.74,SSW,208,0.0,0.0,85,0.00,,,0.00,Wunderground v.1.15,2013-08-07 02:25:00,
2013-08-06 21:30:00,75.9,71.1,29.74,SSW,208,0.0,0.0,85,0.00,,,0.00,Wunderground v.1.15,2013-08-07 02:30:00,
2013-08-06 21:35:00,75.4,70.6,29.74,SSW,208,0.0,0.0,85,0.00,,,0.00,Wunderground v.1.15,2013-08-07 02:35:00,
2013-08-06 21:40:00,75.1,70.6,29.74,SSW,208,0.0,0.0,86,0.00,,,0.00,Wunderground v.1.15,2013-08-07 02:40:00,
2013-08-06 21:45:00,75.0,71.2,29.74,SSW,208,0.0,0.0,88,0.00,,,0.00,Wunderground v.1.15,2013-08-07 02:45:00,
2013-08-06 21:50:00,75.1,71.3,29.74,SSW,207,0.0,0.0,88,0.00,,,0.00,Wunderground v.1.15,2013-08-07 02:50:00,
2013-08-06 21:56:00,76.0,71.8,29.74,SSW,194,6.0,10.0,87,0.00,,,0.00,Wunderground v.1.15,2013-08-07 02:56:00,
2013-08-06 22:01:00,76.6,72.1,29.74,SSW,193,1.0,5.0,86,0.00,,,0.00,Wunderground v.1.15,2013-08-07 03:01:00,
2013-08-06 22:06:00,76.8,71.9,29.74,SSW,193,5.0,9.0,85,0.00,,,0.00,Wunderground v.1.15,2013-08-07 03:06:00,
2013-08-06 22:11:00,76.8,71.9,29.74,SSW,192,4.0,5.0,85,0.00,,,0.00,Wunderground v.1.15,2013-08-07 03:11:00,
2013-08-06 22:16:00,76.6,71.7,29.74,SSW,192,7.0,10.0,85,0.00,,,0.00,Wunderground v.1.15,2013-08-07 03:16:00,
2013-08-06 22:21:00,76.8,71.6,29.74,SSW,196,5.0,7.0,84,0.00,,,0.00,Wunderground v.1.15,2013-08-07 03:21:00,
2013-08-06 22:26:00,76.7,71.5,29.74,SSW,196,3.0,9.0,84,0.00,,,0.00,Wunderground v.1.15,2013-08-07 03:26:00,
2013-08-06 22:31:00,76.5,71.7,29.74,SSW,193,5.0,9.0,85,0.00,,,0.00,Wunderground v.1.15,2013-08-07 03:31:00,
2013-08-06 22:36:00,76.4,71.6,29.74,SSW,193,4.0,9.0,85,0.00,,,0.00,Wunderground v.1.15,2013-08-07 03:36:00,
2013-08-06 22:41:00,76.2,71.4,29.73,SSW,193,3.0,3.0,85,0.00,,,0.00,Wunderground v.1.15,2013-08-07 03:41:00,
2013-08-06 22:46:00,76.0,71.2,29.73,SSW,194,0.0,3.0,85,0.00,,,0.00,Wunderground v.1.15,2013-08-07 03:46:00,
2013-08-06 22:51:00,75.8,71.3,29.74,SSW,193,6.0,6.0,86,0.00,,,0.00,Wunderground v.1.15,2013-08-07 03:51:00,
2013-08-06 22:56:00,75.6,71.1,29.75,SSW,193,4.0,7.0,86,0.00,,,0.00,Wunderground v.1.15,2013-08-07 03:56:00,
2013-08-06 23:01:00,75.6,71.1,29.75,SSW,196,4.0,4.0,86,0.00,,,0.00,Wunderground v.1.15,2013-08-07 04:01:00,
2013-08-06 23:06:00,75.5,70.3,29.75,SSW,209,5.0,9.0,84,0.00,,,0.00,Wunderground v.1.15,2013-08-07 04:06:00,
2013-08-06 23:11:00,75.6,70.1,29.74,SSW,213,0.0,6.0,83,0.00,,,0.00,Wunderground v.1.15,2013-08-07 04:11:00,
2013-08-06 23:16:00,75.5,69.6,29.74,SSW,211,4.0,6.0,82,0.00,,,0.00,Wunderground v.1.15,2013-08-07 04:16:00,
2013-08-06 23:21:00,75.4,69.2,29.74,SSW,197,3.0,5.0,81,0.00,,,0.00,Wunderground v.1.15,2013-08-07 04:21:00,
2013-08-06 23:26:00,75.3,68.7,29.74,SSW,203,0.0,10.0,80,0.00,,,0.00,Wunderground v.1.15,2013-08-07 04:26:00,
2013-08-06 23:31:00,75.1,68.5,29.74,South,186,0.0,3.0,80,0.00,,,0.00,Wunderground v.1.15,2013-08-07 04:31:00,
2013-08-06 23:36:00,75.0,68.4,29.74,SSW,192,0.0,5.0,80,0.00,,,0.00,Wunderground v.1.15,2013-08-07 04:36:00,
2013-08-06 23:41:00,74.8,68.2,29.74,SSW,193,0.0,1.0,80,0.00,,,0.00,Wunderground v.1.15,2013-08-07 04:41:00,
2013-08-06 23:46:00,74.7,68.5,29.74,SSW,193,0.0,1.0,81,0.00,,,0.00,Wunderground v.1.15,2013-08-07 04:46:00,
2013-08-06 23:51:00,74.4,68.2,29.74,SSW,195,2.0,4.0,81,0.00,,,0.00,Wunderground v.1.15,2013-08-07 04:51:00,
2013-08-06 23:56:00,74.2,68.3,29.74,SSW,199,0.0,5.0,82,0.00,,,0.00,Wunderground v.1.15,2013-08-07 04:56:00,